Year,Month,Day,Hour,Minute,Value (Times are PST for temperature in C)
2019,04,01,00,00,6.50
2019,04,01,00,01,6.50
2019,04,01,00,02,6.50
2019,04,01,00,03,6.40
2019,04,01,00,04,6.40
2019,04,01,00,05,6.40
2019,04,01,00,06,6.40
2019,04,01,00,07,6.40
2019,04,01,00,08,6.40
2019,04,01,00,09,6.40
2019,04,01,00,10,6.40
2019,04,01,00,11,6.40
2019,04,01,00,12,6.30
2019,04,01,00,13,6.30
2019,04,01,00,14,6.30
2019,04,01,00,15,6.30
2019,04,01,00,16,6.30
2019,04,01,00,17,6.30
2019,04,01,00,18,6.30
2019,04,01,00,19,6.30
2019,04,01,00,20,6.30
2019,04,01,00,21,6.30
2019,04,01,00,22,6.30
2019,04,01,00,23,6.30
2019,04,01,00,24,6.30
2019,04,01,00,25,6.30
2019,04,01,00,26,6.20
2019,04,01,00,27,6.20
2019,04,01,00,28,6.20
2019,04,01,00,29,6.20
2019,04,01,00,30,6.20
2019,04,01,00,31,6.20
2019,04,01,00,32,6.10
2019,04,01,00,33,6.10
2019,04,01,00,34,6.10
2019,04,01,00,35,6.10
2019,04,01,00,36,6.10
2019,04,01,00,37,6.10
2019,04,01,00,38,6.00
2019,04,01,00,39,6.00
2019,04,01,00,40,6.00
2019,04,01,00,41,6.00
2019,04,01,00,42,6.00
2019,04,01,00,43,6.00
2019,04,01,00,44,5.90
2019,04,01,00,45,5.90
2019,04,01,00,46,5.90
2019,04,01,00,47,5.90
2019,04,01,00,48,5.90
2019,04,01,00,49,6.00
2019,04,01,00,50,6.00
2019,04,01,00,51,6.00
2019,04,01,00,52,6.00
2019,04,01,00,53,6.00
2019,04,01,00,54,6.00
2019,04,01,00,55,6.10
2019,04,01,00,56,6.00
2019,04,01,00,57,6.00
2019,04,01,00,58,6.00
2019,04,01,00,59,6.00
2019,04,01,01,00,6.00
2019,04,01,01,01,6.00
2019,04,01,01,02,5.90
2019,04,01,01,03,5.90
2019,04,01,01,04,5.90
2019,04,01,01,05,5.90
2019,04,01,01,06,5.90
2019,04,01,01,07,5.80
2019,04,01,01,08,5.80
2019,04,01,01,09,5.80
2019,04,01,01,10,5.80
2019,04,01,01,11,5.80
2019,04,01,01,12,5.80
2019,04,01,01,13,5.80
2019,04,01,01,14,5.70
2019,04,01,01,15,5.70
2019,04,01,01,16,5.70
2019,04,01,01,17,5.70
2019,04,01,01,18,5.70
2019,04,01,01,19,5.70
2019,04,01,01,20,5.70
2019,04,01,01,21,5.70
2019,04,01,01,22,5.70
2019,04,01,01,23,5.70
2019,04,01,01,24,5.70
2019,04,01,01,25,5.70
2019,04,01,01,26,5.70
2019,04,01,01,27,5.70
2019,04,01,01,28,5.70
2019,04,01,01,29,5.70
2019,04,01,01,30,5.70
2019,04,01,01,31,5.70
2019,04,01,01,32,5.70
2019,04,01,01,33,5.70
2019,04,01,01,34,5.70
2019,04,01,01,35,5.70
2019,04,01,01,36,5.60
2019,04,01,01,37,5.60
2019,04,01,01,38,5.60
2019,04,01,01,39,5.60
2019,04,01,01,40,5.60
2019,04,01,01,41,5.60
2019,04,01,01,42,5.60
2019,04,01,01,43,5.60
2019,04,01,01,44,5.50
2019,04,01,01,45,5.50
2019,04,01,01,46,5.50
2019,04,01,01,47,5.40
2019,04,01,01,48,5.40
2019,04,01,01,49,5.40
2019,04,01,01,50,5.40
2019,04,01,01,51,5.40
2019,04,01,01,52,5.40
2019,04,01,01,53,5.40
2019,04,01,01,54,5.40
2019,04,01,01,55,5.40
2019,04,01,01,56,5.40
2019,04,01,01,57,5.30
2019,04,01,01,58,5.30
2019,04,01,01,59,5.30
2019,04,01,02,00,5.30
2019,04,01,02,01,5.30
2019,04,01,02,02,5.30
2019,04,01,02,03,5.30
2019,04,01,02,04,5.30
2019,04,01,02,05,5.30
2019,04,01,02,06,5.30
2019,04,01,02,07,5.30
2019,04,01,02,08,5.30
2019,04,01,02,09,5.30
2019,04,01,02,10,5.30
2019,04,01,02,11,5.20
2019,04,01,02,12,5.20
2019,04,01,02,13,5.20
2019,04,01,02,14,5.20
2019,04,01,02,15,5.20
2019,04,01,02,16,5.20
2019,04,01,02,17,5.20
2019,04,01,02,18,5.20
2019,04,01,02,19,5.20
2019,04,01,02,20,5.20
2019,04,01,02,21,5.20
2019,04,01,02,22,5.20
2019,04,01,02,23,5.20
2019,04,01,02,24,5.20
2019,04,01,02,25,5.20
2019,04,01,02,26,5.20
2019,04,01,02,27,5.20
2019,04,01,02,28,5.20
2019,04,01,02,29,5.20
2019,04,01,02,30,5.20
2019,04,01,02,31,5.10
2019,04,01,02,32,5.10
2019,04,01,02,33,5.10
2019,04,01,02,34,5.10
2019,04,01,02,35,5.00
2019,04,01,02,36,5.00
2019,04,01,02,37,5.00
2019,04,01,02,38,5.00
2019,04,01,02,39,5.00
2019,04,01,02,40,4.90
2019,04,01,02,41,4.90
2019,04,01,02,42,4.90
2019,04,01,02,43,4.80
2019,04,01,02,44,4.80
2019,04,01,02,45,4.80
2019,04,01,02,46,4.80
2019,04,01,02,47,4.80
2019,04,01,02,48,4.80
2019,04,01,02,49,4.80
2019,04,01,02,50,4.70
2019,04,01,02,51,4.70
2019,04,01,02,52,4.70
2019,04,01,02,53,4.70
2019,04,01,02,54,4.70
2019,04,01,02,55,4.70
2019,04,01,02,56,4.70
2019,04,01,02,57,4.70
2019,04,01,02,58,4.60
2019,04,01,02,59,4.60
2019,04,01,03,00,4.60
2019,04,01,03,01,4.60
2019,04,01,03,02,4.50
2019,04,01,03,03,4.50
2019,04,01,03,04,4.40
2019,04,01,03,05,4.40
2019,04,01,03,06,4.40
2019,04,01,03,07,4.40
2019,04,01,03,08,4.30
2019,04,01,03,09,4.30
2019,04,01,03,10,4.30
2019,04,01,03,11,4.30
2019,04,01,03,12,4.20
2019,04,01,03,13,4.20
2019,04,01,03,14,4.20
2019,04,01,03,15,4.20
2019,04,01,03,16,4.20
2019,04,01,03,17,4.20
2019,04,01,03,18,4.30
2019,04,01,03,19,4.30
2019,04,01,03,20,4.30
2019,04,01,03,21,4.30
2019,04,01,03,22,4.30
2019,04,01,03,23,4.30
2019,04,01,03,24,4.20
2019,04,01,03,25,4.20
2019,04,01,03,26,4.20
2019,04,01,03,27,4.10
2019,04,01,03,28,4.10
2019,04,01,03,29,4.10
2019,04,01,03,30,4.10
2019,04,01,03,31,4.10
2019,04,01,03,32,4.00
2019,04,01,03,33,4.00
2019,04,01,03,34,4.00
2019,04,01,03,35,4.00
2019,04,01,03,36,4.00
2019,04,01,03,37,3.90
2019,04,01,03,38,3.90
2019,04,01,03,39,3.90
2019,04,01,03,40,3.90
2019,04,01,03,41,3.90
2019,04,01,03,42,3.90
2019,04,01,03,43,3.90
2019,04,01,03,44,3.90
2019,04,01,03,45,3.90
2019,04,01,03,46,3.90
2019,04,01,03,47,3.90
2019,04,01,03,48,3.90
2019,04,01,03,49,3.90
2019,04,01,03,50,3.90
2019,04,01,03,51,3.90
2019,04,01,03,52,3.90
2019,04,01,03,53,3.90
2019,04,01,03,54,3.80
2019,04,01,03,55,3.80
2019,04,01,03,56,3.80
2019,04,01,03,57,3.80
2019,04,01,03,58,3.80
2019,04,01,03,59,3.70
2019,04,01,04,00,3.70
2019,04,01,04,01,3.70
2019,04,01,04,02,3.70
2019,04,01,04,03,3.70
2019,04,01,04,04,3.70
2019,04,01,04,05,3.70
2019,04,01,04,06,3.70
2019,04,01,04,07,3.70
2019,04,01,04,08,3.70
2019,04,01,04,09,3.70
2019,04,01,04,10,3.70
2019,04,01,04,11,3.70
2019,04,01,04,12,3.70
2019,04,01,04,13,3.70
2019,04,01,04,14,3.70
2019,04,01,04,15,3.70
2019,04,01,04,16,3.80
2019,04,01,04,17,3.80
2019,04,01,04,18,3.80
2019,04,01,04,19,3.70
2019,04,01,04,20,3.70
2019,04,01,04,21,3.70
2019,04,01,04,22,3.70
2019,04,01,04,23,3.70
2019,04,01,04,24,3.70
2019,04,01,04,25,3.70
2019,04,01,04,26,3.60
2019,04,01,04,27,3.60
2019,04,01,04,28,3.60
2019,04,01,04,29,3.50
2019,04,01,04,30,3.60
2019,04,01,04,31,3.60
2019,04,01,04,32,3.60
2019,04,01,04,33,3.60
2019,04,01,04,34,3.60
2019,04,01,04,35,3.70
2019,04,01,04,36,3.70
2019,04,01,04,37,3.70
2019,04,01,04,38,3.70
2019,04,01,04,39,3.70
2019,04,01,04,40,3.70
2019,04,01,04,41,3.70
2019,04,01,04,42,3.70
2019,04,01,04,43,3.70
2019,04,01,04,44,3.70
2019,04,01,04,45,3.70
2019,04,01,04,46,3.70
2019,04,01,04,47,3.70
2019,04,01,04,48,3.70
2019,04,01,04,49,3.70
2019,04,01,04,50,3.70
2019,04,01,04,51,3.70
2019,04,01,04,52,3.70
2019,04,01,04,53,3.70
2019,04,01,04,54,3.70
2019,04,01,04,55,3.70
2019,04,01,04,56,3.70
2019,04,01,04,57,3.70
2019,04,01,04,58,3.70
2019,04,01,04,59,3.70
2019,04,01,05,00,3.70
2019,04,01,05,01,3.70
2019,04,01,05,02,3.70
2019,04,01,05,03,3.70
2019,04,01,05,04,3.70
2019,04,01,05,05,3.70
2019,04,01,05,06,3.70
2019,04,01,05,07,3.70
2019,04,01,05,08,3.70
2019,04,01,05,09,3.60
2019,04,01,05,10,3.70
2019,04,01,05,11,3.60
2019,04,01,05,12,3.60
2019,04,01,05,13,3.60
2019,04,01,05,14,3.60
2019,04,01,05,15,3.60
2019,04,01,05,16,3.50
2019,04,01,05,17,3.50
2019,04,01,05,18,3.40
2019,04,01,05,19,3.40
2019,04,01,05,20,3.40
2019,04,01,05,21,3.30
2019,04,01,05,22,3.30
2019,04,01,05,23,3.30
2019,04,01,05,24,3.30
2019,04,01,05,25,3.30
2019,04,01,05,26,3.20
2019,04,01,05,27,3.20
2019,04,01,05,28,3.20
2019,04,01,05,29,3.20
2019,04,01,05,30,3.20
2019,04,01,05,31,3.30
2019,04,01,05,32,3.30
2019,04,01,05,33,3.30
2019,04,01,05,34,3.30
2019,04,01,05,35,3.30
2019,04,01,05,36,3.30
2019,04,01,05,37,3.40
2019,04,01,05,38,3.40
2019,04,01,05,39,3.40
2019,04,01,05,40,3.40
2019,04,01,05,41,3.40
2019,04,01,05,42,3.30
2019,04,01,05,43,3.30
2019,04,01,05,44,3.30
2019,04,01,05,45,3.30
2019,04,01,05,46,3.30
2019,04,01,05,47,3.30
2019,04,01,05,48,3.30
2019,04,01,05,49,3.30
2019,04,01,05,50,3.40
2019,04,01,05,51,3.40
2019,04,01,05,52,3.40
2019,04,01,05,53,3.40
2019,04,01,05,54,3.40
2019,04,01,05,55,3.40
2019,04,01,05,56,3.40
2019,04,01,05,57,3.40
2019,04,01,05,58,3.30
2019,04,01,05,59,3.30
2019,04,01,06,00,3.30
2019,04,01,06,01,3.30
2019,04,01,06,02,3.20
2019,04,01,06,03,3.20
2019,04,01,06,04,3.20
2019,04,01,06,05,3.20
2019,04,01,06,06,3.20
2019,04,01,06,07,3.20
2019,04,01,06,08,3.20
2019,04,01,06,09,3.20
2019,04,01,06,10,3.20
2019,04,01,06,11,3.10
2019,04,01,06,12,3.10
2019,04,01,06,13,3.10
2019,04,01,06,14,3.10
2019,04,01,06,15,3.10
2019,04,01,06,16,3.10
2019,04,01,06,17,3.10
2019,04,01,06,18,3.10
2019,04,01,06,19,3.10
2019,04,01,06,20,3.10
2019,04,01,06,21,3.10
2019,04,01,06,22,3.10
2019,04,01,06,23,3.10
2019,04,01,06,24,3.10
2019,04,01,06,25,3.00
2019,04,01,06,26,3.10
2019,04,01,06,27,3.00
2019,04,01,06,28,3.00
2019,04,01,06,29,3.00
2019,04,01,06,30,3.00
2019,04,01,06,31,2.90
2019,04,01,06,32,3.00
2019,04,01,06,33,3.00
2019,04,01,06,34,3.00
2019,04,01,06,35,3.00
2019,04,01,06,36,3.10
2019,04,01,06,37,3.10
2019,04,01,06,38,3.10
2019,04,01,06,39,3.10
2019,04,01,06,40,3.00
2019,04,01,06,41,3.00
2019,04,01,06,42,3.00
2019,04,01,06,43,3.00
2019,04,01,06,44,2.90
2019,04,01,06,45,2.90
2019,04,01,06,46,2.90
2019,04,01,06,47,2.90
2019,04,01,06,48,2.90
2019,04,01,06,49,2.90
2019,04,01,06,50,2.90
2019,04,01,06,51,2.90
2019,04,01,06,52,2.90
2019,04,01,06,53,2.80
2019,04,01,06,54,2.80
2019,04,01,06,55,2.80
2019,04,01,06,56,2.80
2019,04,01,06,57,2.80
2019,04,01,06,58,2.80
2019,04,01,06,59,2.80
2019,04,01,07,00,2.80
2019,04,01,07,01,2.80
2019,04,01,07,02,2.70
2019,04,01,07,03,2.70
2019,04,01,07,04,2.70
2019,04,01,07,05,2.70
2019,04,01,07,06,2.70
2019,04,01,07,07,2.80
2019,04,01,07,08,2.80
2019,04,01,07,09,2.80
2019,04,01,07,10,2.80
2019,04,01,07,11,2.80
2019,04,01,07,12,2.80
2019,04,01,07,13,2.80
2019,04,01,07,14,2.80
2019,04,01,07,15,2.80
2019,04,01,07,16,2.80
2019,04,01,07,17,2.80
2019,04,01,07,18,2.80
2019,04,01,07,19,2.80
2019,04,01,07,20,2.80
2019,04,01,07,21,2.80
2019,04,01,07,22,2.80
2019,04,01,07,23,2.90
2019,04,01,07,24,2.80
2019,04,01,07,25,2.80
2019,04,01,07,26,2.80
2019,04,01,07,27,2.80
2019,04,01,07,28,2.80
2019,04,01,07,29,2.80
2019,04,01,07,30,2.80
2019,04,01,07,31,2.80
2019,04,01,07,32,2.80
2019,04,01,07,33,2.80
2019,04,01,07,34,2.80
2019,04,01,07,35,2.80
2019,04,01,07,36,2.80
2019,04,01,07,37,2.80
2019,04,01,07,38,2.80
2019,04,01,07,39,2.80
2019,04,01,07,40,2.80
2019,04,01,07,41,2.80
2019,04,01,07,42,2.80
2019,04,01,07,43,2.80
2019,04,01,07,44,2.80
2019,04,01,07,45,2.80
2019,04,01,07,46,2.90
2019,04,01,07,47,2.90
2019,04,01,07,48,2.90
2019,04,01,07,49,2.90
2019,04,01,07,50,2.90
2019,04,01,07,51,3.00
2019,04,01,07,52,3.00
2019,04,01,07,53,3.00
2019,04,01,07,54,3.00
2019,04,01,07,55,3.10
2019,04,01,07,56,3.10
2019,04,01,07,57,3.10
2019,04,01,07,58,3.10
2019,04,01,07,59,3.20
2019,04,01,08,00,3.20
2019,04,01,08,01,3.30
2019,04,01,08,02,3.40
2019,04,01,08,03,3.40
2019,04,01,08,04,3.50
2019,04,01,08,05,3.60
2019,04,01,08,06,3.70
2019,04,01,08,07,3.70
2019,04,01,08,08,3.80
2019,04,01,08,09,3.80
2019,04,01,08,10,3.90
2019,04,01,08,11,3.90
2019,04,01,08,12,4.00
2019,04,01,08,13,4.10
2019,04,01,08,14,4.10
2019,04,01,08,15,4.20
2019,04,01,08,16,4.20
2019,04,01,08,17,4.20
2019,04,01,08,18,4.30
2019,04,01,08,19,4.40
2019,04,01,08,20,4.40
2019,04,01,08,21,4.50
2019,04,01,08,22,4.60
2019,04,01,08,23,4.70
2019,04,01,08,24,4.80
2019,04,01,08,25,4.90
2019,04,01,08,26,4.90
2019,04,01,08,27,5.00
2019,04,01,08,28,5.10
2019,04,01,08,29,5.20
2019,04,01,08,30,5.30
2019,04,01,08,31,5.30
2019,04,01,08,32,5.40
2019,04,01,08,33,5.50
2019,04,01,08,34,5.50
2019,04,01,08,35,5.60
2019,04,01,08,36,5.60
2019,04,01,08,37,5.70
2019,04,01,08,38,5.80
2019,04,01,08,39,5.80
2019,04,01,08,40,5.90
2019,04,01,08,41,6.00
2019,04,01,08,42,6.00
2019,04,01,08,43,6.00
2019,04,01,08,44,6.10
2019,04,01,08,45,6.10
2019,04,01,08,46,6.20
2019,04,01,08,47,6.20
2019,04,01,08,48,6.30
2019,04,01,08,49,6.30
2019,04,01,08,50,6.30
2019,04,01,08,51,6.40
2019,04,01,08,52,6.40
2019,04,01,08,53,6.50
2019,04,01,08,54,6.60
2019,04,01,08,55,6.70
2019,04,01,08,56,6.80
2019,04,01,08,57,6.80
2019,04,01,08,58,6.90
2019,04,01,08,59,7.00
2019,04,01,09,00,7.10
2019,04,01,09,01,7.10
2019,04,01,09,02,7.20
2019,04,01,09,03,7.20
2019,04,01,09,04,7.30
2019,04,01,09,05,7.40
2019,04,01,09,06,7.40
2019,04,01,09,07,7.50
2019,04,01,09,08,7.50
2019,04,01,09,09,7.60
2019,04,01,09,10,7.70
2019,04,01,09,11,7.80
2019,04,01,09,12,7.80
2019,04,01,09,13,7.90
2019,04,01,09,14,7.90
2019,04,01,09,15,8.00
2019,04,01,09,16,8.00
2019,04,01,09,17,8.10
2019,04,01,09,18,8.20
2019,04,01,09,19,8.20
2019,04,01,09,20,8.30
2019,04,01,09,21,8.40
2019,04,01,09,22,8.40
2019,04,01,09,23,8.40
2019,04,01,09,24,8.40
2019,04,01,09,25,8.40
2019,04,01,09,26,8.40
2019,04,01,09,27,8.60
2019,04,01,09,28,8.90
2019,04,01,09,29,9.00
2019,04,01,09,30,9.10
2019,04,01,09,31,9.10
2019,04,01,09,32,9.20
2019,04,01,09,33,9.20
2019,04,01,09,34,9.20
2019,04,01,09,35,9.30
2019,04,01,09,36,9.30
2019,04,01,09,37,9.40
2019,04,01,09,38,9.50
2019,04,01,09,39,9.50
2019,04,01,09,40,9.60
2019,04,01,09,41,9.70
2019,04,01,09,42,9.70
2019,04,01,09,43,9.80
2019,04,01,09,44,9.80
2019,04,01,09,45,9.90
2019,04,01,09,46,9.90
2019,04,01,09,47,10.00
2019,04,01,09,48,10.00
2019,04,01,09,49,10.10
2019,04,01,09,50,10.20
2019,04,01,09,51,10.20
2019,04,01,09,52,10.20
2019,04,01,09,53,10.30
2019,04,01,09,54,10.40
2019,04,01,09,55,10.50
2019,04,01,09,56,10.50
2019,04,01,09,57,10.60
2019,04,01,09,58,10.60
2019,04,01,09,59,10.60
2019,04,01,10,00,10.70
2019,04,01,10,01,10.70
2019,04,01,10,02,10.70
2019,04,01,10,03,10.70
2019,04,01,10,04,10.70
2019,04,01,10,05,10.70
2019,04,01,10,06,10.80
2019,04,01,10,07,10.80
2019,04,01,10,08,10.80
2019,04,01,10,09,10.90
2019,04,01,10,10,10.90
2019,04,01,10,11,11.00
2019,04,01,10,12,11.00
2019,04,01,10,13,11.10
2019,04,01,10,14,11.20
2019,04,01,10,15,11.30
2019,04,01,10,16,11.40
2019,04,01,10,17,11.50
2019,04,01,10,18,11.60
2019,04,01,10,19,11.70
2019,04,01,10,20,11.80
2019,04,01,10,21,11.90
2019,04,01,10,22,11.90
2019,04,01,10,23,12.00
2019,04,01,10,24,12.10
2019,04,01,10,25,12.10
2019,04,01,10,26,12.20
2019,04,01,10,27,12.30
2019,04,01,10,28,12.40
2019,04,01,10,29,12.50
2019,04,01,10,30,12.60
2019,04,01,10,31,12.70
2019,04,01,10,32,12.80
2019,04,01,10,33,12.80
2019,04,01,10,34,12.80
2019,04,01,10,35,12.90
2019,04,01,10,36,13.00
2019,04,01,10,37,13.00
2019,04,01,10,38,13.10
2019,04,01,10,39,13.20
2019,04,01,10,40,13.20
2019,04,01,10,41,13.30
2019,04,01,10,42,13.30
2019,04,01,10,43,13.30
2019,04,01,10,44,13.40
2019,04,01,10,45,13.50
2019,04,01,10,46,13.50
2019,04,01,10,47,13.60
2019,04,01,10,48,13.60
2019,04,01,10,49,13.60
2019,04,01,10,50,13.60
2019,04,01,10,51,13.60
2019,04,01,10,52,13.70
2019,04,01,10,53,13.70
2019,04,01,10,54,13.70
2019,04,01,10,55,13.70
2019,04,01,10,56,13.70
2019,04,01,10,57,13.70
2019,04,01,10,58,13.80
2019,04,01,10,59,13.80
2019,04,01,11,00,13.80
2019,04,01,11,01,13.80
2019,04,01,11,02,13.80
2019,04,01,11,03,13.80
2019,04,01,11,04,13.80
2019,04,01,11,05,13.80
2019,04,01,11,06,13.90
2019,04,01,11,07,13.90
2019,04,01,11,08,14.00
2019,04,01,11,09,14.10
2019,04,01,11,10,14.10
2019,04,01,11,11,14.30
2019,04,01,11,12,14.30
2019,04,01,11,13,14.40
2019,04,01,11,14,14.50
2019,04,01,11,15,14.60
2019,04,01,11,16,14.60
2019,04,01,11,17,14.70
2019,04,01,11,18,14.70
2019,04,01,11,19,14.80
2019,04,01,11,20,14.80
2019,04,01,11,21,14.80
2019,04,01,11,22,14.80
2019,04,01,11,23,14.80
2019,04,01,11,24,14.80
2019,04,01,11,25,14.90
2019,04,01,11,26,15.00
2019,04,01,11,27,15.10
2019,04,01,11,28,15.10
2019,04,01,11,29,15.20
2019,04,01,11,30,15.30
2019,04,01,11,31,15.30
2019,04,01,11,32,15.50
2019,04,01,11,33,15.60
2019,04,01,11,34,15.80
2019,04,01,11,35,16.00
2019,04,01,11,36,16.10
2019,04,01,11,37,16.20
2019,04,01,11,38,16.20
2019,04,01,11,39,16.30
2019,04,01,11,40,16.40
2019,04,01,11,41,16.50
2019,04,01,11,42,16.70
2019,04,01,11,43,16.80
2019,04,01,11,44,17.00
2019,04,01,11,45,17.10
2019,04,01,11,46,17.30
2019,04,01,11,47,17.40
2019,04,01,11,48,17.40
2019,04,01,11,49,17.40
2019,04,01,11,50,17.50
2019,04,01,11,51,17.50
2019,04,01,11,52,17.60
2019,04,01,11,53,17.70
2019,04,01,11,54,17.80
2019,04,01,11,55,17.90
2019,04,01,11,56,18.00
2019,04,01,11,57,18.10
2019,04,01,11,58,18.10
2019,04,01,11,59,18.20
2019,04,01,12,00,18.20
2019,04,01,12,01,18.40
2019,04,01,12,02,18.50
2019,04,01,12,03,18.60
2019,04,01,12,04,18.60
2019,04,01,12,05,18.60
2019,04,01,12,06,18.60
2019,04,01,12,07,18.60
2019,04,01,12,08,18.60
2019,04,01,12,09,18.60
2019,04,01,12,10,18.60
2019,04,01,12,11,18.60
2019,04,01,12,12,18.60
2019,04,01,12,13,18.70
2019,04,01,12,14,18.70
2019,04,01,12,15,18.80
2019,04,01,12,16,18.90
2019,04,01,12,17,19.00
2019,04,01,12,18,19.20
2019,04,01,12,19,19.30
2019,04,01,12,20,19.40
2019,04,01,12,21,19.50
2019,04,01,12,22,19.50
2019,04,01,12,23,19.50
2019,04,01,12,24,19.60
2019,04,01,12,25,19.60
2019,04,01,12,26,19.60
2019,04,01,12,27,19.70
2019,04,01,12,28,19.80
2019,04,01,12,29,19.80
2019,04,01,12,30,19.70
2019,04,01,12,31,19.70
2019,04,01,12,32,19.70
2019,04,01,12,33,19.80
2019,04,01,12,34,19.90
2019,04,01,12,35,20.00
2019,04,01,12,36,20.00
2019,04,01,12,37,20.10
2019,04,01,12,38,20.20
2019,04,01,12,39,20.20
2019,04,01,12,40,20.20
2019,04,01,12,41,20.20
2019,04,01,12,42,20.10
2019,04,01,12,43,20.00
2019,04,01,12,44,19.90
2019,04,01,12,45,19.90
2019,04,01,12,46,19.80
2019,04,01,12,47,19.80
2019,04,01,12,48,19.70
2019,04,01,12,49,19.70
2019,04,01,12,50,19.70
2019,04,01,12,51,19.60
2019,04,01,12,52,19.60
2019,04,01,12,53,19.50
2019,04,01,12,54,19.50
2019,04,01,12,55,19.40
2019,04,01,12,56,19.50
2019,04,01,12,57,19.50
2019,04,01,12,58,19.60
2019,04,01,12,59,19.70
2019,04,01,13,00,19.70
2019,04,01,13,01,19.70
2019,04,01,13,02,19.70
2019,04,01,13,03,19.80
2019,04,01,13,04,19.80
2019,04,01,13,05,19.70
2019,04,01,13,06,19.70
2019,04,01,13,07,19.70
2019,04,01,13,08,19.70
2019,04,01,13,09,19.70
2019,04,01,13,10,19.80
2019,04,01,13,11,19.80
2019,04,01,13,12,19.80
2019,04,01,13,13,19.90
2019,04,01,13,14,19.90
2019,04,01,13,15,19.90
2019,04,01,13,16,20.00
2019,04,01,13,17,20.10
2019,04,01,13,18,20.10
2019,04,01,13,19,20.10
2019,04,01,13,20,20.10
2019,04,01,13,21,20.20
2019,04,01,13,22,20.20
2019,04,01,13,23,20.20
2019,04,01,13,24,20.10
2019,04,01,13,25,20.10
2019,04,01,13,26,20.00
2019,04,01,13,27,20.00
2019,04,01,13,28,20.00
2019,04,01,13,29,20.00
2019,04,01,13,30,20.00
2019,04,01,13,31,20.00
2019,04,01,13,32,20.00
2019,04,01,13,33,20.00
2019,04,01,13,34,19.90
2019,04,01,13,35,20.00
2019,04,01,13,36,20.00
2019,04,01,13,37,20.00
2019,04,01,13,38,20.00
2019,04,01,13,39,20.00
2019,04,01,13,40,20.10
2019,04,01,13,41,20.10
2019,04,01,13,42,20.10
2019,04,01,13,43,20.20
2019,04,01,13,44,20.20
2019,04,01,13,45,20.30
2019,04,01,13,46,20.30
2019,04,01,13,47,20.30
2019,04,01,13,48,20.30
2019,04,01,13,49,20.30
2019,04,01,13,50,20.30
2019,04,01,13,51,20.30
2019,04,01,13,52,20.30
2019,04,01,13,53,20.30
2019,04,01,13,54,20.30
2019,04,01,13,55,20.30
2019,04,01,13,56,20.20
2019,04,01,13,57,20.20
2019,04,01,13,58,20.20
2019,04,01,13,59,20.30
2019,04,01,14,00,20.30
2019,04,01,14,01,20.30
2019,04,01,14,02,20.30
2019,04,01,14,03,20.30
2019,04,01,14,04,20.30
2019,04,01,14,05,20.40
2019,04,01,14,06,20.40
2019,04,01,14,07,20.40
2019,04,01,14,08,20.50
2019,04,01,14,09,20.50
2019,04,01,14,10,20.50
2019,04,01,14,11,20.60
2019,04,01,14,12,20.50
2019,04,01,14,13,20.50
2019,04,01,14,14,20.50
2019,04,01,14,15,20.50
2019,04,01,14,16,20.60
2019,04,01,14,17,20.60
2019,04,01,14,18,20.60
2019,04,01,14,19,20.60
2019,04,01,14,20,20.70
2019,04,01,14,21,20.70
2019,04,01,14,22,20.70
2019,04,01,14,23,20.70
2019,04,01,14,24,20.80
2019,04,01,14,25,20.80
2019,04,01,14,26,20.80
2019,04,01,14,27,20.70
2019,04,01,14,28,20.70
2019,04,01,14,29,20.70
2019,04,01,14,30,20.70
2019,04,01,14,31,20.70
2019,04,01,14,32,20.70
2019,04,01,14,33,20.70
2019,04,01,14,34,20.70
2019,04,01,14,35,20.80
2019,04,01,14,36,20.90
2019,04,01,14,37,21.00
2019,04,01,14,38,21.10
2019,04,01,14,39,21.00
2019,04,01,14,40,21.00
2019,04,01,14,41,21.10
2019,04,01,14,42,21.10
2019,04,01,14,43,21.10
2019,04,01,14,44,21.20
2019,04,01,14,45,21.20
2019,04,01,14,46,21.20
2019,04,01,14,47,21.30
2019,04,01,14,48,21.20
2019,04,01,14,49,21.20
2019,04,01,14,50,21.20
2019,04,01,14,51,21.20
2019,04,01,14,52,21.20
2019,04,01,14,53,21.20
2019,04,01,14,54,21.30
2019,04,01,14,55,21.30
2019,04,01,14,56,21.40
2019,04,01,14,57,21.30
2019,04,01,14,58,21.30
2019,04,01,14,59,21.20
2019,04,01,15,00,21.10
2019,04,01,15,01,21.00
2019,04,01,15,02,20.90
2019,04,01,15,03,20.90
2019,04,01,15,04,20.90
2019,04,01,15,05,20.90
2019,04,01,15,06,21.00
2019,04,01,15,07,21.00
2019,04,01,15,08,21.00
2019,04,01,15,09,20.90
2019,04,01,15,10,20.90
2019,04,01,15,11,20.90
2019,04,01,15,12,20.90
2019,04,01,15,13,20.90
2019,04,01,15,14,20.90
2019,04,01,15,15,20.80
2019,04,01,15,16,20.90
2019,04,01,15,17,20.90
2019,04,01,15,18,21.00
2019,04,01,15,19,21.10
2019,04,01,15,20,21.20
2019,04,01,15,21,21.30
2019,04,01,15,22,21.30
2019,04,01,15,23,21.30
2019,04,01,15,24,21.20
2019,04,01,15,25,21.10
2019,04,01,15,26,21.10
2019,04,01,15,27,21.00
2019,04,01,15,28,21.00
2019,04,01,15,29,21.00
2019,04,01,15,30,21.10
2019,04,01,15,31,21.20
2019,04,01,15,32,21.20
2019,04,01,15,33,21.30
2019,04,01,15,34,21.30
2019,04,01,15,35,21.30
2019,04,01,15,36,21.30
2019,04,01,15,37,21.20
2019,04,01,15,38,21.20
2019,04,01,15,39,21.20
2019,04,01,15,40,21.30
2019,04,01,15,41,21.30
2019,04,01,15,42,21.40
2019,04,01,15,43,21.40
2019,04,01,15,44,21.40
2019,04,01,15,45,21.40
2019,04,01,15,46,21.40
2019,04,01,15,47,21.30
2019,04,01,15,48,21.30
2019,04,01,15,49,21.30
2019,04,01,15,50,21.20
2019,04,01,15,51,21.10
2019,04,01,15,52,21.10
2019,04,01,15,53,21.20
2019,04,01,15,54,21.30
2019,04,01,15,55,21.40
2019,04,01,15,56,21.40
2019,04,01,15,57,21.40
2019,04,01,15,58,21.40
2019,04,01,15,59,21.40
2019,04,01,16,00,21.40
2019,04,01,16,01,21.50
2019,04,01,16,02,21.60
2019,04,01,16,03,21.70
2019,04,01,16,04,21.70
2019,04,01,16,05,21.70
2019,04,01,16,06,21.80
2019,04,01,16,07,21.90
2019,04,01,16,08,21.90
2019,04,01,16,09,21.90
2019,04,01,16,10,22.00
2019,04,01,16,11,22.00
2019,04,01,16,12,21.90
2019,04,01,16,13,21.80
2019,04,01,16,14,21.60
2019,04,01,16,15,21.50
2019,04,01,16,16,21.40
2019,04,01,16,17,21.30
2019,04,01,16,18,21.30
2019,04,01,16,19,21.20
2019,04,01,16,20,21.20
2019,04,01,16,21,21.20
2019,04,01,16,22,21.30
2019,04,01,16,23,21.30
2019,04,01,16,24,21.20
2019,04,01,16,25,21.20
2019,04,01,16,26,21.20
2019,04,01,16,27,21.20
2019,04,01,16,28,21.20
2019,04,01,16,29,21.30
2019,04,01,16,30,21.30
2019,04,01,16,31,21.30
2019,04,01,16,32,21.40
2019,04,01,16,33,21.40
2019,04,01,16,34,21.40
2019,04,01,16,35,21.40
2019,04,01,16,36,21.40
2019,04,01,16,37,21.40
2019,04,01,16,38,21.30
2019,04,01,16,39,21.30
2019,04,01,16,40,21.30
2019,04,01,16,41,21.30
2019,04,01,16,42,21.30
2019,04,01,16,43,21.30
2019,04,01,16,44,21.30
2019,04,01,16,45,21.30
2019,04,01,16,46,21.30
2019,04,01,16,47,21.30
2019,04,01,16,48,21.30
2019,04,01,16,49,21.30
2019,04,01,16,50,21.30
2019,04,01,16,51,21.30
2019,04,01,16,52,21.20
2019,04,01,16,53,21.20
2019,04,01,16,54,21.30
2019,04,01,16,55,21.30
2019,04,01,16,56,21.40
2019,04,01,16,57,21.40
2019,04,01,16,58,21.40
2019,04,01,16,59,21.30
2019,04,01,17,00,21.30
2019,04,01,17,01,21.30
2019,04,01,17,02,21.30
2019,04,01,17,03,21.30
2019,04,01,17,04,21.30
2019,04,01,17,05,21.20
2019,04,01,17,06,21.20
2019,04,01,17,07,21.20
2019,04,01,17,08,21.20
2019,04,01,17,09,21.10
2019,04,01,17,10,21.10
2019,04,01,17,11,21.10
2019,04,01,17,12,21.20
2019,04,01,17,13,21.20
2019,04,01,17,14,21.20
2019,04,01,17,15,21.20
2019,04,01,17,16,21.20
2019,04,01,17,17,21.20
2019,04,01,17,18,21.20
2019,04,01,17,19,21.20
2019,04,01,17,20,21.20
2019,04,01,17,21,21.30
2019,04,01,17,22,21.30
2019,04,01,17,23,21.20
2019,04,01,17,24,21.20
2019,04,01,17,25,21.20
2019,04,01,17,26,21.20
2019,04,01,17,27,21.00
2019,04,01,17,28,20.60
2019,04,01,17,29,20.10
2019,04,01,17,30,19.60
2019,04,01,17,31,19.30
2019,04,01,17,32,19.00
2019,04,01,17,33,18.80
2019,04,01,17,34,18.70
2019,04,01,17,35,18.60
2019,04,01,17,36,18.60
2019,04,01,17,37,18.40
2019,04,01,17,38,18.30
2019,04,01,17,39,18.20
2019,04,01,17,40,18.20
2019,04,01,17,41,18.10
2019,04,01,17,42,18.00
2019,04,01,17,43,17.90
2019,04,01,17,44,17.80